Terminal Aerodrome Forecast
Issued by NWS

Home | Current Version | Previous Version | Text Only | Print | Product List | Glossary On
Versions: 1 2 3 4 5 6 7 8 9 10 11 12 13 14 15 16 17 18 19 20 21 22 23
000
FTUS43 KSGF 272300
TAFJLN
TAF
KJLN 272320Z 2800/2824 16006KT P6SM SKC
     FM280700 18010KT P6SM SKC WS020/22040KT
     FM281000 20013KT P6SM SKC WS020/23051KT
     FM281400 19017G30KT P6SM SKC=

USA.gov is the U.S. government's official web portal to all federal, state and local government web resources and services.